Regional Weather Roundup
Issued by NWS

Home | Current Version | Previous Version | Graphics & Text | Print | Product List | Glossary On
Versions: 1 2 3 4 5 6 7 8 9 10 11 12 13 14 15 16 17 18 19 20 21 22 23 24 25 26 27 28 29 30 31 32 33 34 35 36 37 38 39 40 41 42 43 44 45 46 47 48 49 50
555
ASUS43 KLOT 010408
RWRIL

ILLINOIS REGIONAL WEATHER ROUNDUP
NATIONAL WEATHER SERVICE CHICAGO/ROMEOVILLE IL
1100 PM CDT SUN APR 30 2017

NOTE: "FAIR" INDICATES FEW OR NO CLOUDS BELOW 12,000 FEET WITH NO
SIGNIFICANT WEATHER AND/OR OBSTRUCTIONS TO VISIBILITY.

* THESE STATIONS ARE NOT UNDER NWS QUALITY CONTROL. THEY ALSO MAY NOT
  REPORT WEATHER SUCH AS PRECIPITATION OR FOG.

ILZ001-002-007-009-015-016-024-010500-
NORTHWEST ILLINOIS

CITY           SKY/WX    TMP DP  RH WIND       PRES   REMARKS
MOLINE         MOCLDY    48  45  89 NE9       29.49F
STERLING*      LGT RAIN  48  45  89 E9        29.53R
SAVANNA*       RAIN      45  43  93 NE10      29.54F
$$

ILZ003-004-008-010-011-017-018-010500-
NORTH CENTRAL ILLINOIS

CITY           SKY/WX    TMP DP  RH WIND       PRES   REMARKS
ROCKFORD       RAIN      45  43  93 VRB3      29.57F FOG
FREEPORT*      LGT RAIN  42  41  97 E12G21    29.55F
ROCHELLE*      CLOUDY    46  46  97 NE7       29.52F
DE KALB*       CLOUDY    46  46  97 E9        29.54F
PERU*          CLOUDY    48  48  97 E7        29.50F FOG
$$

ILZ005-006-012>014-019>023-010500-
NORTHEAST ILLINOIS

CITY           SKY/WX    TMP DP  RH WIND       PRES   REMARKS
CHICAGO-OHARE  TSTM      46  44  93 NE14      29.53F VSB 1/2
CHICAGO-MIDWAY LGT RAIN  50  50 100 NE16G24   29.51F FOG
AURORA         HVY RAIN  48  46  93 NE9       29.56R FOG
LANSING*       CLOUDY    49  49 100 E8        29.53F VSB 1
JOLIET*        TSTM      53  52  99 W14G22    29.56R
WAUKEGAN       LGT RAIN  42  42 100 NE10      29.58F
DUPAGE AIRPORT TSTM      45  45 100 N8        29.52F
KANKAKEE*      RAIN      58  58  97 CALM      29.54S
WHEELING       LGT RAIN  43  43 100 NE13      29.56F
MORRIS*        RAIN      53  51  93 CALM      29.52R
ROMEOVILLE*    TSTM      49  49 100 N3        29.52F
NORTHERLY ISL    N/A     46  45  96 N9          N/A
$$

LMZ740>746-010500-
SOUTHERN LAKE MICHIGAN

STATION/POSITION SKY/WX   TEMP    WIND        PRES    VSBY  WAVE
                          AIR SEA DIR/SP/G                  HT/PER
                          (F)     (DEG/KT/KT) (MB)    (MI)  (FT/S)
SOUTHERN BUOY              42 41   50/ 17/ 21 1005.1          3/ 4
HARRISON CRIB              46      10/  6/  8   N/A
BURNHAM HARBOR             46      20/ 10/ 11   N/A
CALUMET HARBOR             47      10/  5/  9 1000.4F
BURNS HARBOR               50      60/  7/  8 1001.7F
MICHIGAN CITY              62     110/  9/ 11   N/A
MICHIGAN CITY 6N           53 48                N/A           3/ 6
ST. JOSEPH                 54 46  120/ 10/ 12 1002.1          2/ 6
$$

ILZ025>027-034>036-040-047-049-050-058-095>099-010500-
WEST-CENTRAL ILLINOIS

CITY           SKY/WX    TMP DP  RH WIND       PRES   REMARKS
QUINCY         CLOUDY    52  47  83 W5        29.52F
GALESBURG*     CLOUDY    52  52  99 SE3       29.47S FOG
MACOMB*        MOCLDY    55  55 100 SW8       29.51S
JACKSONVILLE*  MOCLDY    57  53  85 W8        29.51R
PITTSFIELD*    CLOUDY    56  53  87 SW9       29.54R
$$

ILZ028>032-037-038-041>044-048-051>054-059>061-010500-
CENTRAL ILLINOIS

CITY           SKY/WX    TMP DP  RH WIND       PRES   REMARKS
PONTIAC        CLOUDY    63  63  98 S17G23    29.51F
BLOOMINGTON    LGT RAIN  63  56  78 SW25G40   29.52S
DECATUR        CLOUDY    65  63  93 S15       29.53S
PEORIA         LGT RAIN  60  58  92 VRB5      29.48S FOG
LACON*         CLOUDY    52  52 100 N7        29.50R FOG
LINCOLN*       CLOUDY    65  58  79 S8G24     29.49F
SPRINGFIELD    CLOUDY    65  53  65 S18G25    29.49F
TAYLORVILLE    CLOUDY    64  55  73 S18G25    29.52S
$$

ILZ033-039-045-046-055>057-062-063-010500-
EAST-CENTRAL ILLINOIS

CITY           SKY/WX    TMP DP  RH WIND       PRES   REMARKS
CHAMPAIGN      CLOUDY    67  63  87 S15       29.54S
RANTOUL*       RAIN      68  66  92 S15G24    29.54S
MATTOON        CLOUDY    66  63  90 S14       29.54F
PARIS*         RAIN     N/A N/A N/A S13       29.58F
$$

ILZ079-100>102-010500-
SOUTHWEST ILLINOIS

CITY           SKY/WX    TMP DP  RH WIND       PRES   REMARKS
ALTON          CLEAR     60  48  66 S14       29.54S
BELLEVILLE     CLEAR     61  50  67 SE7       29.55R
CAHOKIA*       CLEAR     62  47  57 S10       29.54S
SPARTA*        CLEAR     59  48  67 S13G18    29.60R
$$

ILZ064>066-069>071-074>076-080>082-084>086-088>090-092>094-010500-
SOUTH-CENTRAL ILLINOIS

CITY           SKY/WX    TMP DP  RH WIND       PRES   REMARKS
CARBONDALE     CLEAR     60  52  74 SW22G30   29.61S
CAIRO*         CLEAR     60  52  74 SW18G25   29.68R
EFFINGHAM*     LGT RAIN  66  65  94 S14G22    29.58F
MARION         PTCLDY    63  55  77 SW15G22   29.63R
MT. VERNON     CLOUDY    62  56  80 SW16G25   29.60S
CENTRALIA*     CLOUDY    64  54  70 S14G23    29.57S
SALEM*         CLOUDY    66  53  64 S18G24    29.57S
METROPOLIS*    CLOUDY    61  53  74 SW15G25   29.69R
$$

ILZ067-068-072-073-078-083-087-091-010500-
SOUTHEAST ILLINOIS

CITY           SKY/WX    TMP DP  RH WIND       PRES   REMARKS
LAWRENCEVILLE  LGT RAIN  69  63  81 S18       29.60F
FLORA*         LGT RAIN  64  62  94 S13       29.60R
FAIRFIELD*     LGT RAIN  62  61  95 SW12      29.60R
HARRISBURG*    DRIZZLE   63  58  85 SW18G26   29.63F
ROBINSON*      CLOUDY    68  63  84 S16G25    29.60F
CARMI*         CLOUDY    68  65  88 S22G30    29.61S
$$

ABBREVIATIONS USED IN REMARKS
   TC - TEMPERATURE IN CELSIUS
  WCI - WIND CHILL INDEX
   HX - HEAT INDEX
  VSB - VISIBILITY
$$





USA.gov is the U.S. government's official web portal to all federal, state and local government web resources and services.